Location: The Jewett Observatory
(46.7288°N, 117.1525°W)
Time: 07:46:13
(UTC-07:00)

Amateur Radio Satellites - All Passes

Search period start: 23 April 2014 07:16
Search period end: 24 April 2014 07:16
Location: The Jewett Observatory, 46.7288°N, 117.1525°W

Satellite Date Start Highest point End Downlink Frequencies (MHz)
Time Altitude Azimuth
STRAND 1 23 Apr 07:19:02 07:23:46 37° 263° (W) 07:28:30 ?
Hamsat 23 Apr 07:40:13 07:44:27 51° 288° (WNW) 07:48:41 145.90 MHz
SO-67 23 Apr 07:53:43 07:57:07 46° 99° (E) 08:00:29 435.3500 MHz FM
KITSAT 1 23 Apr 07:57:48 08:03:42 21° 14° (NNE) 08:09:34 435.175 FM
Sapphire 23 Apr 08:00:29 08:05:39 42° 48° (NE) 08:10:46 437.095 MHz 1200 baud AX-25 AFSK
AO-7 23 Apr 08:18:47 08:23:58 19° 318° (NW) 08:29:09 29.400 - 29.500 MHz
HO-68 23 Apr 08:21:25 08:24:19 13° 84° (E) 08:27:13 435.675 MHz FM
PCSat 23 Apr 08:44:54 08:50:23 88° 57° (ENE) 08:55:48 145.825 MHz
JAS-2 23 Apr 08:49:02 08:54:14 49° 291° (WNW) 08:59:58 435.800 - 435.900 CW/SSB, 435.910 FM
Oscar 10/S400 23 Apr 08:53:01 10:08:47 58° 200° (SSW) 17:49:06 145.825 - 145.975 CW/USB, Beacon 145.810 USB
SO-67 23 Apr 09:28:04 09:29:54 14° 296° (WNW) 09:31:44 435.3500 MHz FM
Oscar 11 23 Apr 09:30:43 09:33:03 14° 89° (E) 09:35:22 145.825 FM, Beacon 2401.500 USB
RS-15 23 Apr 09:31:05 09:41:12 38° 335° (NNW) 09:51:12 29.354 - 29.394 USB, Beacon 29.352 USB
Sapphire 23 Apr 09:44:06 09:49:01 36° 248° (WSW) 09:53:54 437.095 MHz 1200 baud AX-25 AFSK
KITSAT 1 23 Apr 09:53:45 10:01:29 45° 42° (NE) 10:09:09 435.175 FM
HO-68 23 Apr 10:06:10 10:13:21 68° 104° (ESE) 10:20:30 435.675 MHz FM
Saudisat 1A 23 Apr 10:21:21 10:25:45 61° 123° (ESE) 10:30:10 436.775 MHz
PCSat 23 Apr 10:30:01 10:33:02 15° 256° (WSW) 10:36:03 145.825 MHz
Oscar 11 23 Apr 11:05:21 11:09:41 64° 287° (WNW) 11:14:00 145.825 FM, Beacon 2401.500 USB
FUNcube-1 23 Apr 11:08:06 11:12:15 46° 99° (E) 11:16:28 145.950 - 145.970 MHz USB
RS-15 23 Apr 11:48:01 11:57:27 31° 9° (N) 12:06:52 29.354 - 29.394 USB, Beacon 29.352 USB
KITSAT 1 23 Apr 11:49:17 11:57:10 57° 244° (WSW) 12:04:58 435.175 FM
HO-68 23 Apr 11:54:35 12:00:32 30° 304° (NW) 12:06:30 435.675 MHz FM
Saudisat 1A 23 Apr 12:02:03 12:05:43 24° 323° (NW) 12:09:24 436.775 MHz
AO-27 23 Apr 12:26:42 12:29:48 16° 57° (ENE) 12:32:53 436.795 MHz FM
Oscar 19 23 Apr 12:29:33 12:33:51 28° 63° (ENE) 12:38:12 437.125 CW, 437.150 USB
ITAMSAT 1 23 Apr 12:35:44 12:39:14 19° 58° (ENE) 12:42:43 435.822 SSB
Oscar 16 23 Apr 12:38:15 12:42:51 34° 65° (ENE) 12:47:30 437.025 USB, Beacon 2401.1428
FUNcube-1 23 Apr 12:45:16 12:48:23 20° 296° (WNW) 12:51:33 145.950 - 145.970 MHz USB
Uribyol 2 23 Apr 13:21:15 13:26:07 44° 68° (ENE) 13:31:01 436.500 FM
TMSAT-1 23 Apr 13:29:38 13:32:20 14° 55° (NE) 13:35:02 436.925 FM
AO-Echo 23 Apr 13:35:09 13:40:03 44° 69° (ENE) 13:44:49 ?
JAS-1B 23 Apr 13:43:00 13:46:51 16° 54° (NE) 13:50:25 435.800 - 435.900 CW/SSB
AO-7 23 Apr 13:46:07 13:50:53 17° 40° (NE) 13:55:38 29.400 - 29.500 MHz
KITSAT 1 23 Apr 13:49:02 13:50:46 11° 264° (W) 13:52:31 435.175 FM
SO-50 23 Apr 13:56:31 13:59:54 21° 113° (ESE) 14:03:17 436.795 FM
RS-15 23 Apr 14:01:57 14:12:43 57° 41° (NE) 14:23:38 29.354 - 29.394 USB, Beacon 29.352 USB
Uosat F 23 Apr 14:03:00 14:03:08 10° 52° (NE) 14:03:17 435.120 FM
AO-27 23 Apr 14:03:27 14:08:38 85° 255° (WSW) 14:13:52 436.795 MHz FM
Oscar 19 23 Apr 14:08:04 14:12:59 45° 261° (W) 14:17:58 437.125 CW, 437.150 USB
ITAMSAT 1 23 Apr 14:13:01 14:18:11 72° 257° (WSW) 14:23:22 435.822 SSB
Oscar 16 23 Apr 14:17:30 14:22:11 35° 264° (W) 14:26:55 437.025 USB, Beacon 2401.1428
ISS 23 Apr 14:18:26 14:21:39 45° 146° (SE) 14:24:52 145.800 FM
Gurwin Techsat 1B 23 Apr 14:21:07 14:26:11 48° 69° (ENE) 14:31:17 435.225 FM
Uribyol 2 23 Apr 15:01:27 15:05:47 27° 266° (W) 15:10:08 436.500 FM
OPAL 23 Apr 15:02:07 15:06:41 29° 97° (E) 15:11:11 ?
TMSAT-1 23 Apr 15:06:09 15:11:27 82° 74° (ENE) 15:16:46 436.925 FM
AO-Echo 23 Apr 15:14:39 15:18:59 27° 266° (W) 15:23:14 ?
JAS-1B 23 Apr 15:29:07 15:36:43 74° 72° (ENE) 15:43:05 435.800 - 435.900 CW/SSB
AO-7 23 Apr 15:33:58 15:41:59 58° 63° (ENE) 15:50:03 29.400 - 29.500 MHz
SO-50 23 Apr 15:35:42 15:40:06 55° 312° (NW) 15:44:35 436.795 FM
Uosat F 23 Apr 15:36:00 15:40:56 61° 71° (ENE) 15:45:54 435.120 FM
AO-27 23 Apr 15:47:06 15:48:57 12° 273° (W) 15:50:48 436.795 MHz FM
UOSAT-12 23 Apr 15:54:19 15:57:31 19° 112° (ESE) 16:00:46 437.025 FM, 437.400 FM
ISS 23 Apr 15:55:09 15:58:24 46° 345° (NNW) 16:01:39 145.800 FM
Gurwin Techsat 1B 23 Apr 16:02:00 16:06:23 26° 267° (W) 16:10:48 435.225 FM
RS-15 23 Apr 16:14:39 16:25:04 53° 246° (WSW) 16:35:45 29.354 - 29.394 USB, Beacon 29.352 USB
OPAL 23 Apr 16:40:46 16:45:41 43° 295° (WNW) 16:50:34 ?
TMSAT-1 23 Apr 16:49:10 16:52:02 15° 272° (W) 16:54:55 436.925 FM
Hamsat 23 Apr 17:01:53 17:04:51 19° 63° (ENE) 17:07:50 145.90 MHz
Saudisat 1A 23 Apr 17:06:38 17:10:05 21° 35° (NE) 17:13:29 436.775 MHz
Uosat F 23 Apr 17:16:40 17:20:09 19° 269° (W) 17:23:39 435.120 FM
SO-50 23 Apr 17:19:12 17:21:41 14° 334° (NNW) 17:24:12 436.795 FM
JAS-1B 23 Apr 17:22:12 17:27:47 22° 268° (W) 17:32:48 435.800 - 435.900 CW/SSB
JAS-2 23 Apr 17:22:17 17:25:21 16° 57° (ENE) 17:28:21 435.800 - 435.900 CW/SSB, 435.910 FM
AO-7 23 Apr 17:27:39 17:35:07 37° 263° (W) 17:42:40 29.400 - 29.500 MHz
ISS 23 Apr 17:32:28 17:35:35 34° 5° (N) 17:38:42 145.800 FM
UOSAT-12 23 Apr 17:32:39 17:37:12 64° 311° (NW) 17:41:52 437.025 FM, 437.400 FM
SO-67 23 Apr 18:30:30 18:33:25 25° 69° (ENE) 18:36:21 435.3500 MHz FM
Hamsat 23 Apr 18:36:24 18:40:29 49° 261° (W) 18:44:39 145.90 MHz
Saudisat 1A 23 Apr 18:45:44 18:50:10 73° 236° (SW) 18:54:31 436.775 MHz
HO-68 23 Apr 18:53:43 18:57:55 17° 47° (NE) 19:02:07 435.675 MHz FM
JAS-2 23 Apr 19:04:18 19:09:54 84° 256° (WSW) 19:15:08 435.800 - 435.900 CW/SSB, 435.910 FM
ISS 23 Apr 19:09:15 19:12:37 77° 24° (NNE) 19:15:59 145.800 FM
UOSAT-12 23 Apr 19:15:21 19:18:17 16° 332° (NNW) 19:21:16 437.025 FM, 437.400 FM
STRAND 1 23 Apr 19:26:12 19:31:15 59° 101° (ESE) 19:36:16 ?
SO-67 23 Apr 20:03:45 20:06:33 22° 266° (W) 20:09:22 435.3500 MHz FM
Oscar 11 23 Apr 20:28:46 20:31:34 17° 61° (ENE) 20:34:23 145.825 FM, Beacon 2401.500 USB
HO-68 23 Apr 20:37:19 20:44:22 68° 68° (ENE) 20:51:29 435.675 MHz FM
SO-50 23 Apr 20:44:44 20:47:03 14° 24° (NNE) 20:49:22 436.795 FM
ISS 23 Apr 20:46:29 20:49:03 20° 222° (SW) 20:51:36 145.800 FM
JAS-2 23 Apr 20:54:16 20:55:47 11° 273° (W) 20:57:18 435.800 - 435.900 CW/SSB, 435.910 FM
STRAND 1 23 Apr 21:06:14 21:10:03 22° 300° (WNW) 21:13:51 ?
MaSat-1 23 Apr 21:06:47 21:09:29 70° 299° (WNW) 21:11:59 437.345 MHz
Oscar 11 23 Apr 22:03:07 22:07:21 57° 260° (W) 22:11:38 145.825 FM, Beacon 2401.500 USB
FUNcube-1 23 Apr 22:07:37 22:11:40 53° 72° (ENE) 22:15:44 145.950 - 145.970 MHz USB
SO-50 23 Apr 22:24:15 22:28:44 47° 46° (NE) 22:33:16 436.795 FM
HO-68 23 Apr 22:26:49 22:32:38 27° 268° (W) 22:38:30 435.675 MHz FM
UOSAT-12 23 Apr 22:40:38 22:42:49 13° 22° (NNE) 22:45:00 437.025 FM, 437.400 FM
Sapphire 23 Apr 22:46:51 22:50:36 19° 106° (ESE) 22:54:21 437.095 MHz 1200 baud AX-25 AFSK
PCSat 23 Apr 23:29:31 23:34:38 45° 115° (ESE) 23:39:47 145.825 MHz
FUNcube-1 23 Apr 23:45:57 23:48:27 15° 270° (W) 23:50:56 145.950 - 145.970 MHz USB
SO-50 24 Apr 00:05:12 00:09:07 27° 245° (WSW) 00:13:04 436.795 FM
UOSAT-12 24 Apr 00:19:44 00:24:14 41° 44° (NE) 00:28:42 437.025 FM, 437.400 FM
Sapphire 24 Apr 00:28:02 00:33:26 72° 305° (NW) 00:38:53 437.095 MHz 1200 baud AX-25 AFSK
KITSAT 1 24 Apr 00:29:22 00:33:43 16° 99° (E) 00:38:05 435.175 FM
OPAL 24 Apr 00:44:39 00:46:44 13° 51° (NE) 00:48:49 ?
PCSat 24 Apr 01:13:14 01:18:11 35° 315° (NW) 01:23:10 145.825 MHz
Uribyol 2 24 Apr 01:33:04 01:35:03 12° 87° (E) 01:37:02 436.500 FM
UOSAT-12 24 Apr 02:00:06 02:04:19 32° 243° (WSW) 02:08:29 437.025 FM, 437.400 FM
AO-27 24 Apr 02:14:03 02:18:28 28° 94° (E) 02:22:52 436.795 MHz FM
Sapphire 24 Apr 02:14:08 02:17:51 18° 327° (NNW) 02:21:35 437.095 MHz 1200 baud AX-25 AFSK
Oscar 19 24 Apr 02:16:28 02:21:34 52° 100° (E) 02:26:38 437.125 CW, 437.150 USB
KITSAT 1 24 Apr 02:19:38 02:27:41 71° 119° (ESE) 02:35:47 435.175 FM
OPAL 24 Apr 02:19:40 02:24:42 71° 70° (ENE) 02:29:51 ?
ITAMSAT 1 24 Apr 02:23:16 02:27:55 33° 96° (E) 02:32:32 435.822 SSB
Oscar 16 24 Apr 02:25:37 02:30:49 67° 102° (ESE) 02:35:59 437.025 USB, Beacon 2401.1428
Gurwin Techsat 1B 24 Apr 02:35:45 02:38:44 15° 88° (E) 02:41:42 435.225 FM
PCSat 24 Apr 03:01:24 03:03:18 12° 339° (NNW) 03:05:13 145.825 MHz
Uribyol 2 24 Apr 03:10:05 03:15:18 87° 105° (ESE) 03:20:30 436.500 FM
JAS-1B 24 Apr 03:12:47 03:14:58 12° 87° (E) 03:17:12 435.800 - 435.900 CW/SSB
AO-Echo 24 Apr 03:18:03 03:22:51 83° 104° (ESE) 03:27:32 ?
TMSAT-1 24 Apr 03:19:37 03:24:03 26° 93° (E) 03:28:27 436.925 FM
AO-7 24 Apr 03:34:43 03:38:27 13° 84° (E) 03:42:10 29.400 - 29.500 MHz
Uosat F 24 Apr 03:42:19 03:45:06 15° 89° (E) 03:47:52 435.120 FM
AO-27 24 Apr 03:53:15 03:58:09 43° 292° (WNW) 04:03:01 436.795 MHz FM
Oscar 19 24 Apr 03:56:27 04:00:36 25° 298° (WNW) 04:04:44 437.125 CW, 437.150 USB
OPAL 24 Apr 04:00:55 04:04:08 17° 268° (W) 04:07:23 ?
ITAMSAT 1 24 Apr 04:02:43 04:07:27 37° 294° (WNW) 04:12:10 435.822 SSB
Oscar 16 24 Apr 04:05:59 04:09:41 20° 301° (WNW) 04:13:22 437.025 USB, Beacon 2401.1428
Gurwin Techsat 1B 24 Apr 04:14:01 04:19:21 81° 286° (WNW) 04:24:39 435.225 FM
KITSAT 1 24 Apr 04:16:17 04:23:44 38° 323° (NW) 04:31:13 435.175 FM
RS-15 24 Apr 04:33:14 04:40:43 21° 99° (E) 04:48:01 29.354 - 29.394 USB, Beacon 29.352 USB
Uribyol 2 24 Apr 04:51:04 04:54:06 16° 304° (WNW) 04:57:07 436.500 FM
AO-Echo 24 Apr 04:58:30 05:00:58 14° 303° (WNW) 05:03:26 ?
TMSAT-1 24 Apr 04:59:08 05:04:11 47° 292° (WNW) 05:09:13 436.925 FM
JAS-1B 24 Apr 05:00:51 05:06:34 87° 106° (ESE) 05:12:35 435.800 - 435.900 CW/SSB
STRAND 1 24 Apr 05:08:12 05:11:33 18° 58° (ENE) 05:14:55 ?
Uosat F 24 Apr 05:19:28 05:24:28 76° 287° (WNW) 05:29:27 435.120 FM
AO-7 24 Apr 05:24:33 05:32:51 66° 105° (ESE) 05:41:08 29.400 - 29.500 MHz
MaSat-1 24 Apr 05:26:26 05:29:18 47° 59° (ENE) 05:32:41 437.345 MHz
Sapphire 24 Apr 05:48:13 05:49:55 11° 20° (NNE) 05:51:37 437.095 MHz 1200 baud AX-25 AFSK
Gurwin Techsat 1B 24 Apr 05:55:51 05:58:30 14° 305° (NW) 06:01:09 435.225 FM
KITSAT 1 24 Apr 06:16:08 06:21:49 20° 351° (N) 06:27:30 435.175 FM
Hamsat 24 Apr 06:19:42 06:23:18 25° 93° (E) 06:26:53 145.90 MHz
PCSat 24 Apr 06:31:45 06:35:23 18° 32° (NNE) 06:39:00 145.825 MHz
RS-15 24 Apr 06:39:59 06:51:14 78° 122° (ESE) 07:02:10 29.354 - 29.394 USB, Beacon 29.352 USB
STRAND 1 24 Apr 06:45:05 06:50:11 74° 257° (WSW) 06:55:19 ?
JAS-1B 24 Apr 06:53:16 06:56:33 16° 306° (NW) 06:59:53 435.800 - 435.900 CW/SSB
Uosat F 24 Apr 07:00:27 07:02:26 12° 306° (NW) 07:04:25 435.120 FM
MaSat-1 24 Apr 07:06:19 07:07:27 11° 251° (WSW) 07:08:39 437.345 MHz
